Time,TemperatureF,DewpointF,PressureIn,WindDirection,WindDirectionDegrees,WindSpeedMPH,WindSpeedGustMPH,Humidity,HourlyPrecipIn,Conditions,Clouds,dailyrainin,SoftwareType,DateUTC
2013-07-13 00:00:00,74.3,66.2,30.08,NE,45,4.0,-999.0,76,0.00,,,0.00,Wunderground v.1.15,2013-07-13 10:00:00,
2013-07-13 00:05:00,74.3,66.2,30.08,NE,45,4.0,-999.0,76,0.00,,,0.00,Wunderground v.1.15,2013-07-13 10:05:00,
2013-07-13 00:10:00,74.3,66.2,30.08,NE,45,4.0,-999.0,76,0.00,,,0.00,Wunderground v.1.15,2013-07-13 10:10:00,
2013-07-13 00:15:00,74.3,66.2,30.08,NE,45,4.0,-999.0,76,0.00,,,0.00,Wunderground v.1.15,2013-07-13 10:15:00,
2013-07-13 00:20:00,74.3,66.2,30.08,NE,45,4.0,-999.0,76,0.00,,,0.00,Wunderground v.1.15,2013-07-13 10:20:00,
2013-07-13 00:25:00,74.3,66.2,30.08,NE,45,4.0,-999.0,76,0.00,,,0.00,Wunderground v.1.15,2013-07-13 10:25:00,
2013-07-13 00:30:00,74.3,66.2,30.08,NE,45,4.0,-999.0,76,0.00,,,0.00,Wunderground v.1.15,2013-07-13 10:30:00,
2013-07-13 00:35:00,74.3,66.2,30.08,NE,45,4.0,-999.0,76,0.00,,,0.00,Wunderground v.1.15,2013-07-13 10:35:00,
2013-07-13 00:40:00,74.3,66.2,30.08,NE,45,4.0,-999.0,76,0.00,,,0.00,Wunderground v.1.15,2013-07-13 10:40:00,
2013-07-13 00:45:00,74.2,66.5,30.08,NE,45,5.0,-999.0,77,0.00,,,0.00,Wunderground v.1.15,2013-07-13 10:45:00,
2013-07-13 00:50:00,74.2,66.5,30.08,NE,45,5.0,-999.0,77,0.00,,,0.00,Wunderground v.1.15,2013-07-13 10:50:00,
2013-07-13 00:55:00,74.2,66.5,30.08,NE,45,5.0,-999.0,77,0.00,,,0.00,Wunderground v.1.15,2013-07-13 10:55:00,
2013-07-13 01:00:00,74.2,66.5,30.08,NE,45,5.0,-999.0,77,0.00,,,0.00,Wunderground v.1.15,2013-07-13 11:00:00,
2013-07-13 01:05:00,74.2,66.5,30.08,NE,45,5.0,-999.0,77,0.00,,,0.00,Wunderground v.1.15,2013-07-13 11:05:00,
2013-07-13 01:10:00,74.2,66.5,30.08,NE,45,5.0,-999.0,77,0.00,,,0.00,Wunderground v.1.15,2013-07-13 11:10:00,
2013-07-13 01:15:00,74.0,67.4,30.07,NE,45,5.0,-999.0,80,0.00,,,0.00,Wunderground v.1.15,2013-07-13 11:15:00,
2013-07-13 01:20:00,74.0,67.4,30.07,NE,45,5.0,-999.0,80,0.00,,,0.00,Wunderground v.1.15,2013-07-13 11:20:00,
2013-07-13 01:25:00,74.0,67.4,30.07,NE,45,5.0,-999.0,80,0.00,,,0.00,Wunderground v.1.15,2013-07-13 11:25:00,
2013-07-13 01:30:00,74.0,67.4,30.07,NE,45,5.0,-999.0,80,0.00,,,0.00,Wunderground v.1.15,2013-07-13 11:30:00,
2013-07-13 01:35:00,74.0,67.4,30.07,NE,45,5.0,-999.0,80,0.00,,,0.00,Wunderground v.1.15,2013-07-13 11:35:00,
2013-07-13 01:40:00,74.0,67.4,30.07,NE,45,5.0,-999.0,80,0.00,,,0.00,Wunderground v.1.15,2013-07-13 11:40:00,
2013-07-13 01:45:00,73.9,66.6,30.05,NE,45,4.0,-999.0,78,0.00,,,0.00,Wunderground v.1.15,2013-07-13 11:45:00,
2013-07-13 01:50:00,73.9,66.6,30.05,NE,45,4.0,-999.0,78,0.00,,,0.00,Wunderground v.1.15,2013-07-13 11:50:00,
2013-07-13 01:55:00,73.9,66.6,30.05,NE,45,4.0,-999.0,78,0.00,,,0.00,Wunderground v.1.15,2013-07-13 11:55:00,
2013-07-13 02:00:00,73.9,66.6,30.05,NE,45,4.0,-999.0,78,0.00,,,0.00,Wunderground v.1.15,2013-07-13 12:00:00,
2013-07-13 02:05:00,73.9,66.6,30.05,NE,45,4.0,-999.0,78,0.00,,,0.00,Wunderground v.1.15,2013-07-13 12:05:00,
2013-07-13 02:10:00,73.9,66.6,30.05,NE,45,4.0,-999.0,78,0.00,,,0.00,Wunderground v.1.15,2013-07-13 12:10:00,
2013-07-13 02:15:00,73.7,66.4,30.04,NE,45,5.0,-999.0,78,0.00,,,0.00,Wunderground v.1.15,2013-07-13 12:15:00,
2013-07-13 02:20:00,73.7,66.4,30.04,NE,45,5.0,-999.0,78,0.00,,,0.00,Wunderground v.1.15,2013-07-13 12:20:00,
2013-07-13 02:25:00,73.7,66.4,30.04,NE,45,5.0,-999.0,78,0.00,,,0.00,Wunderground v.1.15,2013-07-13 12:25:00,
2013-07-13 02:30:00,73.7,66.4,30.04,NE,45,5.0,-999.0,78,0.00,,,0.00,Wunderground v.1.15,2013-07-13 12:30:00,
2013-07-13 02:35:00,73.7,66.4,30.04,NE,45,5.0,-999.0,78,0.00,,,0.00,Wunderground v.1.15,2013-07-13 12:35:00,
2013-07-13 02:40:00,73.7,66.4,30.04,NE,45,5.0,-999.0,78,0.00,,,0.00,Wunderground v.1.15,2013-07-13 12:40:00,
2013-07-13 02:45:00,73.9,66.6,30.03,NE,45,4.0,-999.0,78,0.00,,,0.00,Wunderground v.1.15,2013-07-13 12:45:00,
2013-07-13 02:50:00,73.9,66.6,30.03,NE,45,4.0,-999.0,78,0.00,,,0.00,Wunderground v.1.15,2013-07-13 12:50:00,
2013-07-13 02:55:00,73.9,66.6,30.03,NE,45,4.0,-999.0,78,0.00,,,0.00,Wunderground v.1.15,2013-07-13 12:55:00,
2013-07-13 03:00:00,73.9,66.6,30.03,NE,45,4.0,-999.0,78,0.00,,,0.00,Wunderground v.1.15,2013-07-13 13:00:00,
2013-07-13 03:05:00,73.9,66.6,30.03,NE,45,4.0,-999.0,78,0.00,,,0.00,Wunderground v.1.15,2013-07-13 13:05:00,
2013-07-13 03:10:00,73.9,66.6,30.03,NE,45,4.0,-999.0,78,0.00,,,0.00,Wunderground v.1.15,2013-07-13 13:10:00,
2013-07-13 03:15:00,73.6,65.6,30.03,NE,45,4.0,-999.0,76,0.00,,,0.00,Wunderground v.1.15,2013-07-13 13:15:00,
2013-07-13 03:20:00,73.6,65.6,30.03,NE,45,4.0,-999.0,76,0.00,,,0.00,Wunderground v.1.15,2013-07-13 13:20:00,
2013-07-13 03:25:00,73.6,65.6,30.03,NE,45,4.0,-999.0,76,0.00,,,0.00,Wunderground v.1.15,2013-07-13 13:25:00,
2013-07-13 03:30:00,73.6,65.6,30.03,NE,45,4.0,-999.0,76,0.00,,,0.00,Wunderground v.1.15,2013-07-13 13:30:00,
2013-07-13 03:35:00,73.6,65.6,30.03,NE,45,4.0,-999.0,76,0.00,,,0.00,Wunderground v.1.15,2013-07-13 13:35:00,
2013-07-13 03:40:00,73.6,65.6,30.03,NE,45,4.0,-999.0,76,0.00,,,0.00,Wunderground v.1.15,2013-07-13 13:40:00,
2013-07-13 03:45:00,73.6,65.2,30.03,NE,45,3.0,-999.0,75,0.00,,,0.00,Wunderground v.1.15,2013-07-13 13:45:00,
2013-07-13 03:50:00,73.6,65.2,30.03,NE,45,3.0,-999.0,75,0.00,,,0.00,Wunderground v.1.15,2013-07-13 13:50:00,
2013-07-13 03:55:00,73.6,65.2,30.03,NE,45,3.0,-999.0,75,0.00,,,0.00,Wunderground v.1.15,2013-07-13 13:55:00,
2013-07-13 04:00:00,73.6,65.2,30.03,NE,45,3.0,-999.0,75,0.00,,,0.00,Wunderground v.1.15,2013-07-13 14:00:00,
2013-07-13 04:05:00,73.6,65.2,30.03,NE,45,3.0,-999.0,75,0.00,,,0.00,Wunderground v.1.15,2013-07-13 14:05:00,
2013-07-13 04:10:00,73.6,65.2,30.03,NE,45,3.0,-999.0,75,0.00,,,0.00,Wunderground v.1.15,2013-07-13 14:10:00,
2013-07-13 04:15:00,73.0,66.1,30.02,NE,45,5.0,-999.0,79,0.00,,,0.00,Wunderground v.1.15,2013-07-13 14:15:00,
2013-07-13 04:20:00,73.0,66.1,30.02,NE,45,5.0,-999.0,79,0.00,,,0.00,Wunderground v.1.15,2013-07-13 14:20:00,
2013-07-13 04:25:00,73.0,66.1,30.02,NE,45,5.0,-999.0,79,0.00,,,0.00,Wunderground v.1.15,2013-07-13 14:25:00,
2013-07-13 04:30:00,73.0,66.1,30.02,NE,45,5.0,-999.0,79,0.00,,,0.00,Wunderground v.1.15,2013-07-13 14:30:00,
2013-07-13 04:35:00,73.0,66.1,30.02,NE,45,5.0,-999.0,79,0.00,,,0.00,Wunderground v.1.15,2013-07-13 14:35:00,
2013-07-13 04:40:00,73.0,66.1,30.02,NE,45,5.0,-999.0,79,0.00,,,0.00,Wunderground v.1.15,2013-07-13 14:40:00,
2013-07-13 04:45:00,73.3,64.5,30.02,ENE,68,5.0,-999.0,74,0.00,,,0.00,Wunderground v.1.15,2013-07-13 14:45:00,
2013-07-13 04:50:00,73.3,64.5,30.02,ENE,68,5.0,-999.0,74,0.00,,,0.00,Wunderground v.1.15,2013-07-13 14:50:00,
2013-07-13 04:55:00,73.3,64.5,30.02,ENE,68,5.0,-999.0,74,0.00,,,0.00,Wunderground v.1.15,2013-07-13 14:55:00,
2013-07-13 05:00:00,73.3,64.5,30.02,ENE,68,5.0,-999.0,74,0.00,,,0.00,Wunderground v.1.15,2013-07-13 15:00:00,
2013-07-13 05:05:00,73.3,64.5,30.02,ENE,68,5.0,-999.0,74,0.00,,,0.00,Wunderground v.1.15,2013-07-13 15:05:00,
2013-07-13 05:10:00,73.3,64.5,30.02,ENE,68,5.0,-999.0,74,0.00,,,0.00,Wunderground v.1.15,2013-07-13 15:10:00,
2013-07-13 05:15:00,73.9,65.5,30.02,NE,45,6.0,-999.0,75,0.00,,,0.00,Wunderground v.1.15,2013-07-13 15:15:00,
2013-07-13 05:20:00,73.9,65.5,30.02,NE,45,6.0,-999.0,75,0.00,,,0.00,Wunderground v.1.15,2013-07-13 15:20:00,
2013-07-13 05:25:00,73.9,65.5,30.02,NE,45,6.0,-999.0,75,0.00,,,0.00,Wunderground v.1.15,2013-07-13 15:25:00,
2013-07-13 05:30:00,73.9,65.5,30.02,NE,45,6.0,-999.0,75,0.00,,,0.00,Wunderground v.1.15,2013-07-13 15:30:00,
2013-07-13 05:35:00,73.9,65.5,30.02,NE,45,6.0,-999.0,75,0.00,,,0.00,Wunderground v.1.15,2013-07-13 15:35:00,
2013-07-13 05:40:00,73.9,65.5,30.02,NE,45,6.0,-999.0,75,0.00,,,0.00,Wunderground v.1.15,2013-07-13 15:40:00,
2013-07-13 05:45:00,73.9,64.7,30.03,NE,45,6.0,-999.0,73,0.00,,,0.00,Wunderground v.1.15,2013-07-13 15:45:00,
2013-07-13 05:50:00,73.9,64.7,30.03,NE,45,6.0,-999.0,73,0.00,,,0.00,Wunderground v.1.15,2013-07-13 15:50:00,
2013-07-13 05:55:00,73.9,64.7,30.03,NE,45,6.0,-999.0,73,0.00,,,0.00,Wunderground v.1.15,2013-07-13 15:55:00,
2013-07-13 06:00:00,73.9,64.7,30.03,NE,45,6.0,-999.0,73,0.00,,,0.00,Wunderground v.1.15,2013-07-13 16:00:00,
2013-07-13 06:05:00,73.9,64.7,30.03,NE,45,6.0,-999.0,73,0.00,,,0.00,Wunderground v.1.15,2013-07-13 16:05:00,
2013-07-13 06:10:00,73.9,64.7,30.03,NE,45,6.0,-999.0,73,0.00,,,0.00,Wunderground v.1.15,2013-07-13 16:10:00,
2013-07-13 06:15:00,74.2,64.2,30.05,ENE,68,5.0,-999.0,71,0.00,,,0.00,Wunderground v.1.15,2013-07-13 16:15:00,
2013-07-13 06:20:00,74.2,64.2,30.05,ENE,68,5.0,-999.0,71,0.00,,,0.00,Wunderground v.1.15,2013-07-13 16:20:00,
2013-07-13 06:25:00,74.2,64.2,30.05,ENE,68,5.0,-999.0,71,0.00,,,0.00,Wunderground v.1.15,2013-07-13 16:25:00,
2013-07-13 06:30:00,74.2,64.2,30.05,ENE,68,5.0,-999.0,71,0.00,,,0.00,Wunderground v.1.15,2013-07-13 16:30:00,
2013-07-13 06:35:00,74.2,64.2,30.05,ENE,68,5.0,-999.0,71,0.00,,,0.00,Wunderground v.1.15,2013-07-13 16:35:00,
2013-07-13 06:40:00,74.2,64.2,30.05,ENE,68,5.0,-999.0,71,0.00,,,0.00,Wunderground v.1.15,2013-07-13 16:40:00,
2013-07-13 06:45:00,74.6,64.2,30.05,ENE,68,5.0,-999.0,70,0.00,,,0.00,Wunderground v.1.15,2013-07-13 16:45:00,
2013-07-13 06:50:00,74.6,64.2,30.05,ENE,68,5.0,-999.0,70,0.00,,,0.00,Wunderground v.1.15,2013-07-13 16:50:00,
2013-07-13 06:55:00,74.6,64.2,30.05,ENE,68,5.0,-999.0,70,0.00,,,0.00,Wunderground v.1.15,2013-07-13 16:55:00,
2013-07-13 07:00:00,74.6,64.2,30.05,ENE,68,5.0,-999.0,70,0.00,,,0.00,Wunderground v.1.15,2013-07-13 17:00:00,
2013-07-13 07:05:00,74.6,64.2,30.05,ENE,68,5.0,-999.0,70,0.00,,,0.00,Wunderground v.1.15,2013-07-13 17:05:00,
2013-07-13 07:10:00,74.6,64.2,30.05,ENE,68,5.0,-999.0,70,0.00,,,0.00,Wunderground v.1.15,2013-07-13 17:10:00,
2013-07-13 07:15:00,75.6,64.3,30.06,NE,45,4.0,-999.0,68,0.00,,,0.00,Wunderground v.1.15,2013-07-13 17:15:00,
2013-07-13 07:20:00,75.6,64.3,30.06,NE,45,4.0,-999.0,68,0.00,,,0.00,Wunderground v.1.15,2013-07-13 17:20:00,
2013-07-13 07:25:00,75.6,64.3,30.06,NE,45,4.0,-999.0,68,0.00,,,0.00,Wunderground v.1.15,2013-07-13 17:25:00,
2013-07-13 07:30:00,75.6,64.3,30.06,NE,45,4.0,-999.0,68,0.00,,,0.00,Wunderground v.1.15,2013-07-13 17:30:00,
2013-07-13 07:35:00,75.6,64.3,30.06,NE,45,4.0,-999.0,68,0.00,,,0.00,Wunderground v.1.15,2013-07-13 17:35:00,
2013-07-13 07:40:00,75.6,64.3,30.06,NE,45,4.0,-999.0,68,0.00,,,0.00,Wunderground v.1.15,2013-07-13 17:40:00,
2013-07-13 07:45:00,78.1,64.9,30.06,NE,45,6.0,-999.0,64,0.00,,,0.00,Wunderground v.1.15,2013-07-13 17:45:00,
2013-07-13 07:50:00,78.1,64.9,30.06,NE,45,6.0,-999.0,64,0.00,,,0.00,Wunderground v.1.15,2013-07-13 17:50:00,
2013-07-13 07:55:00,78.1,64.9,30.06,NE,45,6.0,-999.0,64,0.00,,,0.00,Wunderground v.1.15,2013-07-13 17:55:00,
2013-07-13 08:00:00,78.1,64.9,30.06,NE,45,6.0,-999.0,64,0.00,,,0.00,Wunderground v.1.15,2013-07-13 18:00:00,
2013-07-13 08:05:00,78.1,64.9,30.06,NE,45,6.0,-999.0,64,0.00,,,0.00,Wunderground v.1.15,2013-07-13 18:05:00,
2013-07-13 08:10:00,78.1,64.9,30.06,NE,45,6.0,-999.0,64,0.00,,,0.00,Wunderground v.1.15,2013-07-13 18:10:00,
2013-07-13 08:15:00,79.6,65.4,30.07,NE,45,7.0,-999.0,62,0.00,,,0.00,Wunderground v.1.15,2013-07-13 18:15:00,
2013-07-13 08:20:00,79.6,65.4,30.07,NE,45,7.0,-999.0,62,0.00,,,0.00,Wunderground v.1.15,2013-07-13 18:20:00,
2013-07-13 08:25:00,79.6,65.4,30.07,NE,45,7.0,-999.0,62,0.00,,,0.00,Wunderground v.1.15,2013-07-13 18:25:00,
2013-07-13 08:30:00,79.6,65.4,30.07,NE,45,7.0,-999.0,62,0.00,,,0.00,Wunderground v.1.15,2013-07-13 18:30:00,
2013-07-13 08:35:00,79.6,65.4,30.07,NE,45,7.0,-999.0,62,0.00,,,0.00,Wunderground v.1.15,2013-07-13 18:35:00,
2013-07-13 08:40:00,79.6,65.4,30.07,NE,45,7.0,-999.0,62,0.00,,,0.00,Wunderground v.1.15,2013-07-13 18:40:00,
2013-07-13 08:45:00,81.7,64.0,30.07,NE,45,5.0,-999.0,55,0.00,,,0.00,Wunderground v.1.15,2013-07-13 18:45:00,
2013-07-13 08:50:00,81.7,64.0,30.07,NE,45,5.0,-999.0,55,0.00,,,0.00,Wunderground v.1.15,2013-07-13 18:50:00,
2013-07-13 08:55:00,81.7,64.0,30.07,NE,45,5.0,-999.0,55,0.00,,,0.00,Wunderground v.1.15,2013-07-13 18:55:00,
2013-07-13 09:00:00,81.7,64.0,30.07,NE,45,5.0,-999.0,55,0.00,,,0.00,Wunderground v.1.15,2013-07-13 19:00:00,
2013-07-13 09:05:00,81.7,64.0,30.07,NE,45,5.0,-999.0,55,0.00,,,0.00,Wunderground v.1.15,2013-07-13 19:05:00,
2013-07-13 09:10:00,81.7,64.0,30.07,NE,45,5.0,-999.0,55,0.00,,,0.00,Wunderground v.1.15,2013-07-13 19:10:00,
2013-07-13 09:15:00,83.6,64.1,30.08,NE,45,6.0,-999.0,52,0.00,,,0.00,Wunderground v.1.15,2013-07-13 19:15:00,
2013-07-13 09:20:00,83.6,64.1,30.08,NE,45,6.0,-999.0,52,0.00,,,0.00,Wunderground v.1.15,2013-07-13 19:20:00,
2013-07-13 09:25:00,83.6,64.1,30.08,NE,45,6.0,-999.0,52,0.00,,,0.00,Wunderground v.1.15,2013-07-13 19:25:00,
2013-07-13 09:30:00,83.6,64.1,30.08,NE,45,6.0,-999.0,52,0.00,,,0.00,Wunderground v.1.15,2013-07-13 19:30:00,
2013-07-13 09:35:00,83.6,64.1,30.08,NE,45,6.0,-999.0,52,0.00,,,0.00,Wunderground v.1.15,2013-07-13 19:35:00,
2013-07-13 09:40:00,83.6,64.1,30.08,NE,45,6.0,-999.0,52,0.00,,,0.00,Wunderground v.1.15,2013-07-13 19:40:00,
2013-07-13 09:45:00,84.6,66.7,30.07,NE,45,7.0,-999.0,55,0.00,,,0.00,Wunderground v.1.15,2013-07-13 19:45:00,
2013-07-13 09:50:00,84.6,66.7,30.07,NE,45,7.0,-999.0,55,0.00,,,0.00,Wunderground v.1.15,2013-07-13 19:50:00,
2013-07-13 09:55:00,84.6,66.7,30.07,NE,45,7.0,-999.0,55,0.00,,,0.00,Wunderground v.1.15,2013-07-13 19:55:00,
2013-07-13 10:00:00,84.6,66.7,30.07,NE,45,7.0,-999.0,55,0.00,,,0.00,Wunderground v.1.15,2013-07-13 20:00:00,
2013-07-13 10:05:00,84.6,66.7,30.07,NE,45,7.0,-999.0,55,0.00,,,0.00,Wunderground v.1.15,2013-07-13 20:05:00,
2013-07-13 10:10:00,84.6,66.7,30.07,NE,45,7.0,-999.0,55,0.00,,,0.00,Wunderground v.1.15,2013-07-13 20:10:00,
2013-07-13 10:15:00,85.6,67.6,30.06,NE,45,8.0,-999.0,55,0.00,,,0.00,Wunderground v.1.15,2013-07-13 20:15:00,
2013-07-13 10:20:00,85.6,67.6,30.06,NE,45,8.0,-999.0,55,0.00,,,0.00,Wunderground v.1.15,2013-07-13 20:20:00,
2013-07-13 10:25:00,85.6,67.6,30.06,NE,45,8.0,-999.0,55,0.00,,,0.00,Wunderground v.1.15,2013-07-13 20:25:00,
2013-07-13 10:30:00,85.6,67.6,30.06,NE,45,8.0,-999.0,55,0.00,,,0.00,Wunderground v.1.15,2013-07-13 20:30:00,
2013-07-13 10:35:00,85.6,67.6,30.06,NE,45,8.0,-999.0,55,0.00,,,0.00,Wunderground v.1.15,2013-07-13 20:35:00,
2013-07-13 10:40:00,85.6,67.6,30.06,NE,45,8.0,-999.0,55,0.00,,,0.00,Wunderground v.1.15,2013-07-13 20:40:00,
2013-07-13 10:45:00,86.5,65.1,30.06,NE,45,8.0,-999.0,49,0.00,,,0.00,Wunderground v.1.15,2013-07-13 20:45:00,
2013-07-13 10:50:00,86.5,65.1,30.06,NE,45,8.0,-999.0,49,0.00,,,0.00,Wunderground v.1.15,2013-07-13 20:50:00,
2013-07-13 10:55:00,86.5,65.1,30.06,NE,45,8.0,-999.0,49,0.00,,,0.00,Wunderground v.1.15,2013-07-13 20:55:00,
2013-07-13 11:00:00,86.5,65.1,30.06,NE,45,8.0,-999.0,49,0.00,,,0.00,Wunderground v.1.15,2013-07-13 21:00:00,
2013-07-13 11:05:00,86.5,65.1,30.06,NE,45,8.0,-999.0,49,0.00,,,0.00,Wunderground v.1.15,2013-07-13 21:05:00,
2013-07-13 11:10:00,86.5,65.1,30.06,NE,45,8.0,-999.0,49,0.00,,,0.00,Wunderground v.1.15,2013-07-13 21:10:00,
2013-07-13 11:15:00,87.2,64.5,30.06,NE,45,7.0,-999.0,47,0.00,,,0.00,Wunderground v.1.15,2013-07-13 21:15:00,
2013-07-13 11:20:00,87.2,64.5,30.06,NE,45,7.0,-999.0,47,0.00,,,0.00,Wunderground v.1.15,2013-07-13 21:20:00,
2013-07-13 11:25:00,87.2,64.5,30.06,NE,45,7.0,-999.0,47,0.00,,,0.00,Wunderground v.1.15,2013-07-13 21:25:00,
2013-07-13 11:30:00,87.2,64.5,30.06,NE,45,7.0,-999.0,47,0.00,,,0.00,Wunderground v.1.15,2013-07-13 21:30:00,
2013-07-13 11:35:00,87.2,64.5,30.06,NE,45,7.0,-999.0,47,0.00,,,0.00,Wunderground v.1.15,2013-07-13 21:35:00,
2013-07-13 11:40:00,87.2,64.5,30.06,NE,45,7.0,-999.0,47,0.00,,,0.00,Wunderground v.1.15,2013-07-13 21:40:00,
2013-07-13 11:45:00,87.7,66.8,30.05,NE,45,9.0,-999.0,50,0.00,,,0.00,Wunderground v.1.15,2013-07-13 21:45:00,
2013-07-13 11:50:00,87.7,66.8,30.05,NE,45,9.0,-999.0,50,0.00,,,0.00,Wunderground v.1.15,2013-07-13 21:50:00,
2013-07-13 11:55:00,87.7,66.8,30.05,NE,45,9.0,-999.0,50,0.00,,,0.00,Wunderground v.1.15,2013-07-13 21:55:00,
2013-07-13 12:00:00,87.7,66.8,30.05,NE,45,9.0,-999.0,50,0.00,,,0.00,Wunderground v.1.15,2013-07-13 22:00:00,
2013-07-13 12:05:00,87.7,66.8,30.05,NE,45,9.0,-999.0,50,0.00,,,0.00,Wunderground v.1.15,2013-07-13 22:05:00,
2013-07-13 12:10:00,87.7,66.8,30.05,NE,45,9.0,-999.0,50,0.00,,,0.00,Wunderground v.1.15,2013-07-13 22:10:00,
2013-07-13 12:15:00,88.0,65.2,30.04,NE,45,9.0,-999.0,47,0.00,,,0.00,Wunderground v.1.15,2013-07-13 22:15:00,
2013-07-13 12:20:00,88.0,65.2,30.04,NE,45,9.0,-999.0,47,0.00,,,0.00,Wunderground v.1.15,2013-07-13 22:20:00,
2013-07-13 12:25:00,88.0,65.2,30.04,NE,45,9.0,-999.0,47,0.00,,,0.00,Wunderground v.1.15,2013-07-13 22:25:00,
2013-07-13 12:30:00,88.0,65.2,30.04,NE,45,9.0,-999.0,47,0.00,,,0.00,Wunderground v.1.15,2013-07-13 22:30:00,
2013-07-13 12:35:00,88.0,65.2,30.04,NE,45,9.0,-999.0,47,0.00,,,0.00,Wunderground v.1.15,2013-07-13 22:35:00,
2013-07-13 12:40:00,88.0,65.2,30.04,NE,45,9.0,-999.0,47,0.00,,,0.00,Wunderground v.1.15,2013-07-13 22:40:00,
2013-07-13 12:45:00,88.8,63.4,30.04,NE,45,8.0,-999.0,43,0.00,,,0.00,Wunderground v.1.15,2013-07-13 22:45:00,
2013-07-13 12:50:00,88.8,63.4,30.04,NE,45,8.0,-999.0,43,0.00,,,0.00,Wunderground v.1.15,2013-07-13 22:50:00,
2013-07-13 12:55:00,88.8,63.4,30.04,NE,45,8.0,-999.0,43,0.00,,,0.00,Wunderground v.1.15,2013-07-13 22:55:00,
2013-07-13 13:00:00,88.8,63.4,30.04,NE,45,8.0,-999.0,43,0.00,,,0.00,Wunderground v.1.15,2013-07-13 23:00:00,
2013-07-13 13:05:00,88.8,63.4,30.04,NE,45,8.0,-999.0,43,0.00,,,0.00,Wunderground v.1.15,2013-07-13 23:05:00,
2013-07-13 13:10:00,88.8,63.4,30.04,NE,45,8.0,-999.0,43,0.00,,,0.00,Wunderground v.1.15,2013-07-13 23:10:00,
2013-07-13 13:15:00,89.1,64.3,30.04,NE,45,8.0,-999.0,44,0.00,,,0.00,Wunderground v.1.15,2013-07-13 23:15:00,
2013-07-13 13:20:00,89.1,64.3,30.04,NE,45,8.0,-999.0,44,0.00,,,0.00,Wunderground v.1.15,2013-07-13 23:20:00,
2013-07-13 13:25:00,89.1,64.3,30.04,NE,45,8.0,-999.0,44,0.00,,,0.00,Wunderground v.1.15,2013-07-13 23:25:00,
2013-07-13 13:30:00,89.1,64.3,30.04,NE,45,8.0,-999.0,44,0.00,,,0.00,Wunderground v.1.15,2013-07-13 23:30:00,
2013-07-13 13:35:00,89.1,64.3,30.04,NE,45,8.0,-999.0,44,0.00,,,0.00,Wunderground v.1.15,2013-07-13 23:35:00,
2013-07-13 13:40:00,89.1,64.3,30.04,NE,45,8.0,-999.0,44,0.00,,,0.00,Wunderground v.1.15,2013-07-13 23:40:00,
2013-07-13 13:45:00,89.3,63.9,30.03,NE,45,9.0,-999.0,43,0.00,,,0.00,Wunderground v.1.15,2013-07-13 23:45:00,
2013-07-13 13:50:00,89.3,63.9,30.03,NE,45,9.0,-999.0,43,0.00,,,0.00,Wunderground v.1.15,2013-07-13 23:50:00,
2013-07-13 13:55:00,89.3,63.9,30.03,NE,45,9.0,-999.0,43,0.00,,,0.00,Wunderground v.1.15,2013-07-13 23:55:00,
2013-07-13 14:00:00,89.3,63.9,30.03,NE,45,9.0,-999.0,43,0.00,,,0.00,Wunderground v.1.15,2013-07-14 00:00:00,
2013-07-13 14:05:00,89.3,63.9,30.03,NE,45,9.0,-999.0,43,0.00,,,0.00,Wunderground v.1.15,2013-07-14 00:05:00,
2013-07-13 14:10:00,89.3,63.9,30.03,NE,45,9.0,-999.0,43,0.00,,,0.00,Wunderground v.1.15,2013-07-14 00:10:00,
2013-07-13 14:15:00,89.4,65.9,30.02,NE,45,8.0,-999.0,46,0.00,,,0.00,Wunderground v.1.15,2013-07-14 00:15:00,
2013-07-13 14:20:00,89.4,65.9,30.02,NE,45,8.0,-999.0,46,0.00,,,0.00,Wunderground v.1.15,2013-07-14 00:20:00,
2013-07-13 14:25:00,89.4,65.9,30.02,NE,45,8.0,-999.0,46,0.00,,,0.00,Wunderground v.1.15,2013-07-14 00:25:00,
2013-07-13 14:30:00,89.4,65.9,30.02,NE,45,8.0,-999.0,46,0.00,,,0.00,Wunderground v.1.15,2013-07-14 00:30:00,
2013-07-13 14:35:00,89.4,65.9,30.02,NE,45,8.0,-999.0,46,0.00,,,0.00,Wunderground v.1.15,2013-07-14 00:35:00,
2013-07-13 14:40:00,89.4,65.9,30.02,NE,45,8.0,-999.0,46,0.00,,,0.00,Wunderground v.1.15,2013-07-14 00:40:00,
2013-07-13 14:45:00,89.5,66.6,30.02,NE,45,9.0,-999.0,47,0.00,,,0.00,Wunderground v.1.15,2013-07-14 00:45:00,
2013-07-13 14:50:00,89.5,66.6,30.02,NE,45,9.0,-999.0,47,0.00,,,0.00,Wunderground v.1.15,2013-07-14 00:50:00,
2013-07-13 14:55:00,89.5,66.6,30.02,NE,45,9.0,-999.0,47,0.00,,,0.00,Wunderground v.1.15,2013-07-14 00:55:00,
2013-07-13 15:00:00,89.5,66.6,30.02,NE,45,9.0,-999.0,47,0.00,,,0.00,Wunderground v.1.15,2013-07-14 01:00:00,
2013-07-13 15:05:00,89.5,66.6,30.02,NE,45,9.0,-999.0,47,0.00,,,0.00,Wunderground v.1.15,2013-07-14 01:05:00,
2013-07-13 15:10:00,89.5,66.6,30.02,NE,45,9.0,-999.0,47,0.00,,,0.00,Wunderground v.1.15,2013-07-14 01:10:00,
2013-07-13 15:15:00,87.6,66.7,30.02,NE,45,10.0,-999.0,50,0.00,,,0.00,Wunderground v.1.15,2013-07-14 01:15:00,
2013-07-13 15:20:00,87.6,66.7,30.02,NE,45,10.0,-999.0,50,0.00,,,0.00,Wunderground v.1.15,2013-07-14 01:20:00,
2013-07-13 15:25:00,87.6,66.7,30.02,NE,45,10.0,-999.0,50,0.00,,,0.00,Wunderground v.1.15,2013-07-14 01:25:00,
2013-07-13 15:30:00,87.6,66.7,30.02,NE,45,10.0,-999.0,50,0.00,,,0.00,Wunderground v.1.15,2013-07-14 01:30:00,
2013-07-13 15:35:00,87.6,66.7,30.02,NE,45,10.0,-999.0,50,0.00,,,0.00,Wunderground v.1.15,2013-07-14 01:35:00,
2013-07-13 15:40:00,87.6,66.7,30.02,NE,45,10.0,-999.0,50,0.00,,,0.00,Wunderground v.1.15,2013-07-14 01:40:00,
2013-07-13 15:45:00,87.0,67.8,30.01,NE,45,10.0,-999.0,53,0.00,,,0.00,Wunderground v.1.15,2013-07-14 01:45:00,
2013-07-13 15:50:00,87.0,67.8,30.01,NE,45,10.0,-999.0,53,0.00,,,0.00,Wunderground v.1.15,2013-07-14 01:50:00,
2013-07-13 15:55:00,87.0,67.8,30.01,NE,45,10.0,-999.0,53,0.00,,,0.00,Wunderground v.1.15,2013-07-14 01:55:00,
2013-07-13 16:00:00,87.0,67.8,30.01,NE,45,10.0,-999.0,53,0.00,,,0.00,Wunderground v.1.15,2013-07-14 02:00:00,
2013-07-13 16:05:00,87.0,67.8,30.01,NE,45,10.0,-999.0,53,0.00,,,0.00,Wunderground v.1.15,2013-07-14 02:05:00,
2013-07-13 16:10:00,87.0,67.8,30.01,NE,45,10.0,-999.0,53,0.00,,,0.00,Wunderground v.1.15,2013-07-14 02:10:00,
2013-07-13 16:15:00,86.3,66.6,30.00,NE,45,9.0,-999.0,52,0.00,,,0.00,Wunderground v.1.15,2013-07-14 02:15:00,
2013-07-13 16:20:00,86.3,66.6,30.00,NE,45,9.0,-999.0,52,0.00,,,0.00,Wunderground v.1.15,2013-07-14 02:20:00,
2013-07-13 16:25:00,86.3,66.6,30.00,NE,45,9.0,-999.0,52,0.00,,,0.00,Wunderground v.1.15,2013-07-14 02:25:00,
2013-07-13 16:30:00,86.3,66.6,30.00,NE,45,9.0,-999.0,52,0.00,,,0.00,Wunderground v.1.15,2013-07-14 02:30:00,
2013-07-13 16:35:00,86.3,66.6,30.00,NE,45,9.0,-999.0,52,0.00,,,0.00,Wunderground v.1.15,2013-07-14 02:35:00,
2013-07-13 16:40:00,86.3,66.6,30.00,NE,45,9.0,-999.0,52,0.00,,,0.00,Wunderground v.1.15,2013-07-14 02:40:00,
2013-07-13 16:45:00,85.4,65.2,30.00,NE,45,8.0,-999.0,51,0.00,,,0.00,Wunderground v.1.15,2013-07-14 02:45:00,
2013-07-13 16:50:00,85.4,65.2,30.00,NE,45,8.0,-999.0,51,0.00,,,0.00,Wunderground v.1.15,2013-07-14 02:50:00,
2013-07-13 16:55:00,85.4,65.2,30.00,NE,45,8.0,-999.0,51,0.00,,,0.00,Wunderground v.1.15,2013-07-14 02:55:00,
2013-07-13 17:00:00,85.4,65.2,30.00,NE,45,8.0,-999.0,51,0.00,,,0.00,Wunderground v.1.15,2013-07-14 03:00:00,
2013-07-13 17:05:00,85.4,65.2,30.00,NE,45,8.0,-999.0,51,0.00,,,0.00,Wunderground v.1.15,2013-07-14 03:05:00,
2013-07-13 17:10:00,85.4,65.2,30.00,NE,45,8.0,-999.0,51,0.00,,,0.00,Wunderground v.1.15,2013-07-14 03:10:00,
2013-07-13 17:15:00,85.5,67.0,30.00,NE,45,7.0,-999.0,54,0.00,,,0.00,Wunderground v.1.15,2013-07-14 03:15:00,
2013-07-13 17:20:00,85.5,67.0,30.00,NE,45,7.0,-999.0,54,0.00,,,0.00,Wunderground v.1.15,2013-07-14 03:20:00,
2013-07-13 17:25:00,85.5,67.0,30.00,NE,45,7.0,-999.0,54,0.00,,,0.00,Wunderground v.1.15,2013-07-14 03:25:00,
2013-07-13 17:30:00,85.5,67.0,30.00,NE,45,7.0,-999.0,54,0.00,,,0.00,Wunderground v.1.15,2013-07-14 03:30:00,
2013-07-13 17:35:00,85.5,67.0,30.00,NE,45,7.0,-999.0,54,0.00,,,0.00,Wunderground v.1.15,2013-07-14 03:35:00,
2013-07-13 17:40:00,85.5,67.0,30.00,NE,45,7.0,-999.0,54,0.00,,,0.00,Wunderground v.1.15,2013-07-14 03:40:00,
2013-07-13 17:45:00,84.0,67.6,30.00,NE,45,7.0,-999.0,58,0.00,,,0.00,Wunderground v.1.15,2013-07-14 03:45:00,
2013-07-13 17:50:00,84.0,67.6,30.00,NE,45,7.0,-999.0,58,0.00,,,0.00,Wunderground v.1.15,2013-07-14 03:50:00,
2013-07-13 17:55:00,84.0,67.6,30.00,NE,45,7.0,-999.0,58,0.00,,,0.00,Wunderground v.1.15,2013-07-14 03:55:00,
2013-07-13 18:00:00,84.0,67.6,30.00,NE,45,7.0,-999.0,58,0.00,,,0.00,Wunderground v.1.15,2013-07-14 04:00:00,
2013-07-13 18:05:00,84.0,67.6,30.00,NE,45,7.0,-999.0,58,0.00,,,0.00,Wunderground v.1.15,2013-07-14 04:05:00,
2013-07-13 18:10:00,84.0,67.6,30.00,NE,45,7.0,-999.0,58,0.00,,,0.00,Wunderground v.1.15,2013-07-14 04:10:00,
2013-07-13 18:15:00,82.0,66.7,30.00,NE,45,8.0,-999.0,60,0.00,,,0.00,Wunderground v.1.15,2013-07-14 04:15:00,
2013-07-13 18:20:00,82.0,66.7,30.00,NE,45,8.0,-999.0,60,0.00,,,0.00,Wunderground v.1.15,2013-07-14 04:20:00,
2013-07-13 18:25:00,82.0,66.7,30.00,NE,45,8.0,-999.0,60,0.00,,,0.00,Wunderground v.1.15,2013-07-14 04:25:00,
2013-07-13 18:30:00,82.0,66.7,30.00,NE,45,8.0,-999.0,60,0.00,,,0.00,Wunderground v.1.15,2013-07-14 04:30:00,
2013-07-13 18:35:00,82.0,66.7,30.00,NE,45,8.0,-999.0,60,0.00,,,0.00,Wunderground v.1.15,2013-07-14 04:35:00,
2013-07-13 18:40:00,82.0,66.7,30.00,NE,45,8.0,-999.0,60,0.00,,,0.00,Wunderground v.1.15,2013-07-14 04:40:00,
2013-07-13 18:45:00,80.1,66.8,30.02,NE,45,8.0,-999.0,64,0.00,,,0.00,Wunderground v.1.15,2013-07-14 04:45:00,
2013-07-13 18:50:00,80.1,66.8,30.02,NE,45,8.0,-999.0,64,0.00,,,0.00,Wunderground v.1.15,2013-07-14 04:50:00,
2013-07-13 18:55:00,80.1,66.8,30.02,NE,45,8.0,-999.0,64,0.00,,,0.00,Wunderground v.1.15,2013-07-14 04:55:00,
2013-07-13 19:00:00,80.1,66.8,30.02,NE,45,8.0,-999.0,64,0.00,,,0.00,Wunderground v.1.15,2013-07-14 05:00:00,
2013-07-13 19:05:00,80.1,66.8,30.02,NE,45,8.0,-999.0,64,0.00,,,0.00,Wunderground v.1.15,2013-07-14 05:05:00,
2013-07-13 19:10:00,80.1,66.8,30.02,NE,45,8.0,-999.0,64,0.00,,,0.00,Wunderground v.1.15,2013-07-14 05:10:00,
2013-07-13 19:15:00,78.2,66.8,30.04,NE,45,6.0,-999.0,68,0.00,,,0.00,Wunderground v.1.15,2013-07-14 05:15:00,
2013-07-13 19:20:00,78.2,66.8,30.04,NE,45,6.0,-999.0,68,0.00,,,0.00,Wunderground v.1.15,2013-07-14 05:20:00,
2013-07-13 19:25:00,78.2,66.8,30.04,NE,45,6.0,-999.0,68,0.00,,,0.00,Wunderground v.1.15,2013-07-14 05:25:00,
2013-07-13 19:30:00,78.2,66.8,30.04,NE,45,6.0,-999.0,68,0.00,,,0.00,Wunderground v.1.15,2013-07-14 05:30:00,
2013-07-13 19:35:00,78.2,66.8,30.04,NE,45,6.0,-999.0,68,0.00,,,0.00,Wunderground v.1.15,2013-07-14 05:35:00,
2013-07-13 19:40:00,78.2,66.8,30.04,NE,45,6.0,-999.0,68,0.00,,,0.00,Wunderground v.1.15,2013-07-14 05:40:00,
2013-07-13 19:45:00,76.9,66.4,30.04,NE,45,4.0,-999.0,70,0.00,,,0.00,Wunderground v.1.15,2013-07-14 05:45:00,
2013-07-13 19:50:00,76.9,66.4,30.04,NE,45,4.0,-999.0,70,0.00,,,0.00,Wunderground v.1.15,2013-07-14 05:50:00,
2013-07-13 19:55:00,76.9,66.4,30.04,NE,45,4.0,-999.0,70,0.00,,,0.00,Wunderground v.1.15,2013-07-14 05:55:00,
2013-07-13 20:00:00,76.9,66.4,30.04,NE,45,4.0,-999.0,70,0.00,,,0.00,Wunderground v.1.15,2013-07-14 06:00:00,
2013-07-13 20:05:00,76.9,66.4,30.04,NE,45,4.0,-999.0,70,0.00,,,0.00,Wunderground v.1.15,2013-07-14 06:05:00,
2013-07-13 20:10:00,76.9,66.4,30.04,NE,45,4.0,-999.0,70,0.00,,,0.00,Wunderground v.1.15,2013-07-14 06:10:00,
2013-07-13 20:15:00,76.1,66.0,30.05,NE,45,4.0,-999.0,71,0.00,,,0.00,Wunderground v.1.15,2013-07-14 06:15:00,
2013-07-13 20:20:00,76.1,66.0,30.05,NE,45,4.0,-999.0,71,0.00,,,0.00,Wunderground v.1.15,2013-07-14 06:20:00,
2013-07-13 20:25:00,76.1,66.0,30.05,NE,45,4.0,-999.0,71,0.00,,,0.00,Wunderground v.1.15,2013-07-14 06:25:00,
2013-07-13 20:30:00,76.1,66.0,30.05,NE,45,4.0,-999.0,71,0.00,,,0.00,Wunderground v.1.15,2013-07-14 06:30:00,
2013-07-13 20:35:00,76.1,66.0,30.05,NE,45,4.0,-999.0,71,0.00,,,0.00,Wunderground v.1.15,2013-07-14 06:35:00,
2013-07-13 20:40:00,76.1,66.0,30.05,NE,45,4.0,-999.0,71,0.00,,,0.00,Wunderground v.1.15,2013-07-14 06:40:00,
2013-07-13 20:45:00,75.7,66.8,30.05,NE,45,4.0,-999.0,74,0.00,,,0.00,Wunderground v.1.15,2013-07-14 06:45:00,
2013-07-13 20:50:00,75.7,66.8,30.05,NE,45,4.0,-999.0,74,0.00,,,0.00,Wunderground v.1.15,2013-07-14 06:50:00,
2013-07-13 20:55:00,75.7,66.8,30.05,NE,45,4.0,-999.0,74,0.00,,,0.00,Wunderground v.1.15,2013-07-14 06:55:00,
2013-07-13 21:00:00,75.7,66.8,30.05,NE,45,4.0,-999.0,74,0.00,,,0.00,Wunderground v.1.15,2013-07-14 07:00:00,
2013-07-13 21:05:00,75.7,66.8,30.05,NE,45,4.0,-999.0,74,0.00,,,0.00,Wunderground v.1.15,2013-07-14 07:05:00,
2013-07-13 21:10:00,75.7,66.8,30.05,NE,45,4.0,-999.0,74,0.00,,,0.00,Wunderground v.1.15,2013-07-14 07:10:00,
2013-07-13 21:15:00,75.6,66.3,30.05,ENE,68,5.0,-999.0,73,0.00,,,0.00,Wunderground v.1.15,2013-07-14 07:15:00,
2013-07-13 21:20:00,75.6,66.3,30.05,ENE,68,5.0,-999.0,73,0.00,,,0.00,Wunderground v.1.15,2013-07-14 07:20:00,
2013-07-13 21:25:00,75.6,66.3,30.05,ENE,68,5.0,-999.0,73,0.00,,,0.00,Wunderground v.1.15,2013-07-14 07:25:00,
2013-07-13 21:30:00,75.6,66.3,30.05,ENE,68,5.0,-999.0,73,0.00,,,0.00,Wunderground v.1.15,2013-07-14 07:30:00,
2013-07-13 21:35:00,75.6,66.3,30.05,ENE,68,5.0,-999.0,73,0.00,,,0.00,Wunderground v.1.15,2013-07-14 07:35:00,
2013-07-13 21:40:00,75.6,66.3,30.05,ENE,68,5.0,-999.0,73,0.00,,,0.00,Wunderground v.1.15,2013-07-14 07:40:00,
2013-07-13 21:45:00,75.3,65.2,30.06,ENE,68,3.0,-999.0,71,0.00,,,0.00,Wunderground v.1.15,2013-07-14 07:45:00,
2013-07-13 21:50:00,75.3,65.2,30.06,ENE,68,3.0,-999.0,71,0.00,,,0.00,Wunderground v.1.15,2013-07-14 07:50:00,
2013-07-13 21:55:00,75.3,65.2,30.06,ENE,68,3.0,-999.0,71,0.00,,,0.00,Wunderground v.1.15,2013-07-14 07:55:00,
2013-07-13 22:00:00,75.3,65.2,30.06,ENE,68,3.0,-999.0,71,0.00,,,0.00,Wunderground v.1.15,2013-07-14 08:00:00,
2013-07-13 22:05:00,75.3,65.2,30.06,ENE,68,3.0,-999.0,71,0.00,,,0.00,Wunderground v.1.15,2013-07-14 08:05:00,
2013-07-13 22:10:00,75.3,65.2,30.06,ENE,68,3.0,-999.0,71,0.00,,,0.00,Wunderground v.1.15,2013-07-14 08:10:00,
2013-07-13 22:15:00,74.7,65.5,30.06,ENE,68,3.0,-999.0,73,0.00,,,0.00,Wunderground v.1.15,2013-07-14 08:15:00,
2013-07-13 22:20:00,74.7,65.5,30.06,ENE,68,3.0,-999.0,73,0.00,,,0.00,Wunderground v.1.15,2013-07-14 08:20:00,
2013-07-13 22:25:00,74.7,65.5,30.06,ENE,68,3.0,-999.0,73,0.00,,,0.00,Wunderground v.1.15,2013-07-14 08:25:00,
2013-07-13 22:30:00,74.7,65.5,30.06,ENE,68,3.0,-999.0,73,0.00,,,0.00,Wunderground v.1.15,2013-07-14 08:30:00,
2013-07-13 22:35:00,74.7,65.5,30.06,ENE,68,3.0,-999.0,73,0.00,,,0.00,Wunderground v.1.15,2013-07-14 08:35:00,
2013-07-13 22:40:00,74.7,65.5,30.06,ENE,68,3.0,-999.0,73,0.00,,,0.00,Wunderground v.1.15,2013-07-14 08:40:00,
2013-07-13 22:45:00,74.4,65.6,30.06,ENE,68,3.0,-999.0,74,0.00,,,0.00,Wunderground v.1.15,2013-07-14 08:45:00,
2013-07-13 22:50:00,74.4,65.6,30.06,ENE,68,3.0,-999.0,74,0.00,,,0.00,Wunderground v.1.15,2013-07-14 08:50:00,
2013-07-13 22:55:00,74.4,65.6,30.06,ENE,68,3.0,-999.0,74,0.00,,,0.00,Wunderground v.1.15,2013-07-14 08:55:00,
2013-07-13 23:00:00,74.4,65.6,30.06,ENE,68,3.0,-999.0,74,0.00,,,0.00,Wunderground v.1.15,2013-07-14 09:00:00,
2013-07-13 23:05:00,74.4,65.6,30.06,ENE,68,3.0,-999.0,74,0.00,,,0.00,Wunderground v.1.15,2013-07-14 09:05:00,
2013-07-13 23:10:00,74.4,65.6,30.06,ENE,68,3.0,-999.0,74,0.00,,,0.00,Wunderground v.1.15,2013-07-14 09:10:00,
2013-07-13 23:15:00,74.3,64.7,30.06,ENE,68,3.0,-999.0,72,0.00,,,0.00,Wunderground v.1.15,2013-07-14 09:15:00,
2013-07-13 23:20:00,74.3,64.7,30.06,ENE,68,3.0,-999.0,72,0.00,,,0.00,Wunderground v.1.15,2013-07-14 09:20:00,
2013-07-13 23:25:00,74.3,64.7,30.06,ENE,68,3.0,-999.0,72,0.00,,,0.00,Wunderground v.1.15,2013-07-14 09:25:00,
2013-07-13 23:30:00,74.3,64.7,30.06,ENE,68,3.0,-999.0,72,0.00,,,0.00,Wunderground v.1.15,2013-07-14 09:30:00,
2013-07-13 23:35:00,74.3,64.7,30.06,ENE,68,3.0,-999.0,72,0.00,,,0.00,Wunderground v.1.15,2013-07-14 09:35:00,
2013-07-13 23:40:00,74.3,64.7,30.06,ENE,68,3.0,-999.0,72,0.00,,,0.00,Wunderground v.1.15,2013-07-14 09:40:00,
2013-07-13 23:45:00,74.1,64.9,30.05,ENE,68,4.0,-999.0,73,0.00,,,0.00,Wunderground v.1.15,2013-07-14 09:45:00,
2013-07-13 23:50:00,74.1,64.9,30.05,ENE,68,4.0,-999.0,73,0.00,,,0.00,Wunderground v.1.15,2013-07-14 09:50:00,
2013-07-13 23:55:00,74.1,64.9,30.05,ENE,68,4.0,-999.0,73,0.00,,,0.00,Wunderground v.1.15,2013-07-14 09:55:00,